Voltar ao catálogo

HUNITY-1

AtivoCiênciaSSO
NORAD 66670·PAYLOAD·🇭🇺 Hungary

Lançado Nov 28, 2025 de Vandenberg Space Force Base

Loading…

Próximas Passagens (próximas 24 horas)

TLE

AtualizadoSource: Space-Track

Época: Sep 14, 2026, 10:45 UTC

1 66670U 25276E   26257.44850457  .00022312  00000-0  73899-3 0  9995
2 66670  97.3986 331.1978 0006431  65.4197 294.7714 15.31293692 44123

Acompanhe HUNITY-1 em tempo real com AllMySat

Download on the App Store